Tracking 19969 objects as of 13-Nov-2019
Live streaming from Space Station
objects crossing your sky now
Track the group of recently launched Starlink satellites

FLOCK 4A 14

Track FLOCK 4A 14 now!
10-day predictions
FLOCK 4A 14 is classified as:


NORAD ID: 44101
Int'l Code: 2019-018Z
Perigee: 497.2 km
Apogee: 512.1 km
Inclination: 97.4 °
Period: 94.6 minutes
Semi major axis: 6875 km
RCS: Unknown
Launch date: April 1, 2019
Source: United States (US)
Launch site: SRIHARIKOTA (SRI)
aabbcc
Your satellite tracking list
Your tracking list is empty




NASA's NSSDC Master Catalog

Two Line Element Set (TLE):
1 44101U 19018Z   19316.78606111  .00002381  00000-0  10490-3 0  9990
2 44101  97.4402  15.4414 0010847 222.8515 137.1877 15.22762271 34301
Source of the keplerian elements: AFSPC